Showing default

LEMUR 2 THENICKMOLO, 43185

Orbit data source: Space-Track

LEMUR 2 THENICKMOLO, 43185 is a payload satellite owned by Spire (US) in SSO that was launched on Thu, 01 Feb 2018 UTC via a SOYUZ-2-1A launch vehicle from the Vostochny Cosmodrome (VOSTO). Payloads include a variety of satellites, spacecraft, and rockets equipped with specific instruments for various scientific and technological missions. These include communications satellites like Starlink; space stations such as the ISS; scientific satellites like the Hubble; Earth observation satellites from companies like Planet Labs, Umbra, and HawkEye 360; GPS; miniature CubeSats for education and research; and military/defense satellites.

Loading next visibility...
LEMUR 2 THENICKMOLO details
Identifier
43185, 2018-014F
Orbit
SSO
Last TLE update8 hours ago
Origin
Flag of USSpire (US)
ManufacturerSpire/Glasgow
MissionOperational Commercial Com/MetRO
Bus & MotorCUBESAT 3U, Unknown motor
Mass4.6 kg wet, 4.6 kg dry
Launch date (UTC)
2018-02-01 (7 years ago)
Launch vehicle
SOYUZ-2-1A
Launch site
Vostochny Cosmodrome (VOSTO)
Object type
Payload
Rocket body
Debris
Shape & HBRBox + 2 Pan, 0.7 m
Radar Cross Section0.124 m², Small (<0.1 m²)

Expand to show TLE details & history

TLE from 8 hours ago
0 LEMUR 2 THENICKMOLO
1 43185U 18014F   24361.28932534  .00050816  00000-0  17023-2 0  9992
2 43185  97.5732 266.3180 0008201  37.4329 322.7481 15.30730795378017
Epoch: 2024-12-26T06:56Z
Definitive object data (Epoch: 2024-12-26T06:56:37.709Z)
Latitude-0.00004°
Longitude66.89003°
Altitude472.259 km
Speed7.632 km/s
True Right ascension17h 45m 16s
True Declination0° 00' 00"
Sunlit
Object was in daylight at TLE epoch
Visualization TLE readout
Latitude1.00784°
Longitude67.09042°
Altitude471.907 km
Speed7.633 km/s
Apparent Right ascension20h 45m 48s
Apparent Declination-35° 05' 51"
Sunlit
Object is in daylight
Visualization observer readout
Local Sidereal Time14:09:27
Azimuth113.904° SE
Elevation-27.908°
Doppler factor1
Orbital elements
Apogee altitude476.206 km
Perigee altitude464.973 km
Semi-major axis6,848.726 km
Eccentricity0.0008201
Inclination97.5732°
RAAN266.318°
Arg. of periapsis37.4329°
True anomaly322.69117°
Mean anomaly322.7481°
Eccentric anomaly322.71964°
Mean motion3.82938 °/min
BSTAR0.0017023
Orbital period94.01 mins
Loading maneuver chart data...
Loading historical data...
Loading historical data...
Loading historical data...
Loading historical data...
Loading historical data...
Loading historical data...
Loading historical data...

LEMUR 2 THENICKMOLO Visibility forecast

Observer location: undefined°, undefined

Span
Click to sort rows by Start time (UTC) header in descending order
Start Az.
Max El. time (UTC)
Max El. Az.
Max El.
End time (UTC)
End Az.
6 mins2024-12-26 18:02:33.159Z173.287° S2024-12-26 18:05:33.159Z206.124° SW41.401°2024-12-26 18:08:33.159Z341.584° N
5 mins2024-12-27 07:02:33.159Z357.605° N2024-12-27 07:04:33.159Z307.777° NW38.486°2024-12-27 07:07:33.159Z209.976° SW
|